Showing default

ORBCOMM FM 110, 41182

Orbit data source: Space-Track

ORBCOMM FM 110, 41182 is a payload satellite owned by Orbcomm (US) in LEO that was launched on Tue, 22 Dec 2015 UTC via an FALCON 9 launch vehicle from the Air Force Eastern Test Range (AFETR). Payload-class satellites include a variety of spacecraft equipped with specific instruments for various scientific and technological missions. These include communications satellites like Starlink; space stations such as the ISS; scientific satellites like the Hubble; Earth observation satellites from companies like Planet Labs, Umbra, and HawkEye 360; GPS; miniature CubeSats for education and research; and military/defense satellites.

Loading next visibility...
Identifier
41182, 2015-081D
Orbit
LEO
Country
Flag of USUS / ORB
Related business
Manufacturer
SNC Louisville
Mission
Operational Commercial Communications
Bus & Motor
SN-100A, Unknown motor
Mass
172 kg wet, 158 kg dry
Launch date (UTC)
2015-12-22 (10 years ago)
Launch vehicle
FALCON 9
Launch site
Air Force Eastern Test Range (AFETR)
Object type
Payload
Rocket body
Debris
Shape & HBR
Box + 1 Pan + 1 Ant, 6.5 m
Radar Cross Section
2.222 m², Medium (>0.1 m² and < 1m²)

Expand to show TLE details & history
Last TLE update: 22 hours ago

TLE from 22 hours ago
0 ORBCOMM FM 110
1 41182U 15081D   25257.40613117  .00000530  00000-0  14983-3 0  9991
2 41182  47.0010 224.9553 0003145 262.7901  97.2627 14.58344031517368
Epoch: 2025-09-14T09:44Z
TLE epoch observation values (Epoch: 2025-09-14T09:44:49.733Z)
Latitude
-0.00001°
Longitude
85.12247°
Altitude
699.023 km
Speed
7.508 km/s
True Right ascension
14h 59m 49s
True Declination
0° 00' 00"
Sunlit
Object was in daylight at epoch
Visualization orbit readout
Latitude
Unknown
Longitude
Unknown
Altitude
Unknown
Speed
Unknown
Apparent Right ascension
Unknown
Apparent Declination
Unknown
Sunlit
N/A
Visualization observer readout
Local Sidereal Time
00:42:22
Azimuth
Unknown
Elevation
Unknown
Doppler factor
Unknown
Orbital elements
Apogee altitude
701.987 km
Perigee altitude
697.535 km
Semi-major axis
7,077.898 km
Eccentricity
0.00031
Inclination
47.001°
RAAN
224.9553°
Arg. of periapsis
262.7901°
True anomaly
97.29845°
Mean anomaly
97.2627°
Eccentric anomaly
97.28057°
Mean motion
3.64491 °/min
Orbital period
98.77 mins
BSTAR
0.00014983
Loading maneuver chart data...
Computing Atmospheric mass density...
Loading historical data...
Loading historical data...
Loading historical data...
Loading historical data...
Loading historical data...
Loading historical data...
Loading historical data...

Documentation

Showing up to 5 results
|